Flag for Kazakhstan Weather past 2 weeks in Almaty, Kazakhstan

Now
97 °F

Broken clouds.


Feels Like: 92 °F
Forecast: 69 / 98 °F
Wind: 8 mph from Southwest

Location: Almaty Airport

Current Time: Jul 3, 2015 at 12:53:06 PM

Latest Report: Jul 3, 2015 at 12:00 PM


Visibility: N/A

Pressure: 29.74 "Hg

Humidity: 13%

Dew point: 37 °F

Location of AlmatyLocation

Historic Weather in Almaty — Graph

°F

Almaty temperature yesterday

Maximum temperature yesterday: 95 °F (at 11:30 AM)
Minimum temperature yesterday: 63 °F (at 5:00 AM)
Average temperature yesterday: 80 °F

Past Weeks' High & Low Weather Summary

 TemperatureHumidityPressure
High95 °F (Jul 1, 3:00 PM)94% (Jun 26, 5:30 AM)29.89 "Hg (Jun 26, 5:30 AM)
Low55 °F (Jun 19, 2:00 AM)9% (Jul 1, 3:30 PM)29.56 "Hg (Jun 23, 3:00 PM)
Average75 °F45%29.73 "Hg
* Reported Jun 18 11:00 AM — Jul 3 11:30 AM, Almaty, Weather by CustomWeather, © 2015

Note: Actual official high and low records may vary slightly from our data, if they occured in-between our weather recording intervals... More about our weather records

Advertising

Almaty weather history for previous 24 hours

 ConditionsComfort  
Time TempWeatherWind HumidityBarometerVisibility
11:30 AM
Fri, Jul 3
95 °FPartly sunny.6 mph23%29.74 "HgN/A
11:00 AM93 °FScattered clouds.6 mph30%29.74 "HgN/A
10:30 AM93 °FScattered clouds.1 mph19%29.77 "HgN/A
9:30 AM88 °FScattered clouds.3 mph25%29.77 "HgN/A
9:00 AM88 °FScattered clouds.1 mph25%29.77 "HgN/A
8:30 AM84 °FScattered clouds.1 mph37%29.77 "HgN/A
8:00 AM82 °FScattered clouds.1 mph37%29.77 "HgN/A
7:30 AM79 °FScattered clouds.1 mph39%29.77 "HgN/A
7:00 AM73 °FScattered clouds.No wind47%29.77 "HgN/A
6:00 AM68 °FScattered clouds.6 mph43%29.77 "HgN/A
5:30 AM73 °FPassing clouds.8 mph29%29.77 "HgN/A
5:00 AM75 °FPassing clouds.8 mph27%29.77 "HgN/A
4:30 AM75 °FPassing clouds.10 mph27%29.77 "HgN/A
4:00 AM72 °FPassing clouds.8 mph33%29.77 "HgN/A
3:30 AM70 °FPassing clouds.3 mph38%29.77 "HgN/A
2:30 AM72 °FPassing clouds.3 mph36%29.80 "HgN/A
2:00 AM73 °FPassing clouds.3 mph31%29.80 "HgN/A
1:30 AM75 °FPassing clouds.8 mph29%29.80 "HgN/A
1:00 AM75 °FPassing clouds.6 mph29%29.80 "HgN/A
12:30 AM75 °FPassing clouds.6 mph31%29.80 "HgN/A
12:00 AM77 °FPassing clouds.6 mph28%29.83 "HgN/A
11:30 PM
Thu, Jul 2
77 °FPassing clouds.6 mph32%29.83 "HgN/A
11:00 PM77 °FPassing clouds.6 mph30%29.83 "HgN/A
10:30 PM75 °FPassing clouds.6 mph31%29.83 "HgN/A
10:00 PM79 °FPassing clouds.6 mph26%29.83 "HgN/A
9:30 PM81 °FPassing clouds.8 mph24%29.80 "HgN/A
9:00 PM79 °FPassing clouds.6 mph28%29.80 "HgN/A
8:30 PM82 °FScattered clouds.6 mph23%29.80 "HgN/A
8:00 PM86 °FScattered clouds.8 mph22%29.80 "HgN/A
7:30 PM88 °FScattered clouds.8 mph21%29.80 "HgN/A
7:00 PM90 °FScattered clouds.8 mph22%29.80 "HgN/A
6:30 PM88 °FPartly sunny.6 mph21%29.80 "HgN/A
6:00 PM88 °FBroken clouds.8 mph21%29.80 "HgN/A
5:30 PM88 °FBroken clouds.8 mph21%29.83 "HgN/A
5:00 PM86 °FBroken clouds.8 mph24%29.83 "HgN/A
4:30 PM86 °FPartly sunny.10 mph24%29.83 "HgN/A
4:00 PM86 °FPartly sunny.6 mph22%29.83 "HgN/A
3:30 PM86 °FBroken clouds.10 mph24%29.83 "HgN/A
3:00 PM91 °FBroken clouds.6 mph15%29.86 "HgN/A
2:30 PM95 °FBroken clouds.10 mph10%29.83 "HgN/A
2:00 PM95 °FBroken clouds.15 mph10%29.83 "HgN/A
1:30 PM95 °FBroken clouds.10 mph11%29.83 "HgN/A
1:00 PM91 °FBroken clouds.6 mph14%29.86 "HgN/A
12:30 PM90 °FPartly sunny.6 mph16%29.86 "HgN/A
12:00 PM95 °FPartly sunny.6 mph10%29.86 "HgN/A
Weather by CustomWeather, © 2015

See weather overviewHow to use our weather pages